• In Moldova, Republic
  • List of Countries
  • For 7 days
  • Water Temperature
  • Satellite Maps
  • Weather Map
  • Weather Widgets
  • user-avatar
    Login

    Hourly Weather Igls

    Today, 21 February, Tuesday

    Time Temperature Precipitation Wind Pressure Humidity
    00:00 +2°C° 0.3 mm 2 mps 685 mmHg 91%
    01:00 +3°C° 0 mm 2 mps 685 mmHg 92%
    02:00 +4°C° 0.6 mm 2 mps 685 mmHg 93%
    03:00 +4°C° 0.6 mm 2 mps 685 mmHg 95%
    04:00 +4°C° 0.6 mm 2 mps 685 mmHg 96%
    05:00 +4°C° 0.3 mm 2 mps 684 mmHg 96%
    06:00 +4°C° 0.3 mm 2 mps 684 mmHg 97%
    07:00 +4°C° 0.3 mm 2 mps 684 mmHg 97%
    08:00 +5°C° 0.3 mm 2 mps 684 mmHg 97%
    09:00 +6°C° 0.3 mm 2 mps 684 mmHg 97%
    10:00 +6°C° 0.3 mm 2 mps 683 mmHg 98%
    11:00 +7°C° 0.7 mm 2 mps 683 mmHg 98%
    12:00 +7°C° 0.7 mm 2 mps 683 mmHg 98%
    13:00 +7°C° 0.7 mm 2 mps 683 mmHg 98%
    14:00 +7°C° 1 mm 2 mps 683 mmHg 97%
    15:00 +7°C° 1 mm 2 mps 683 mmHg 97%
    16:00 +6°C° 1 mm 2 mps 683 mmHg 98%
    17:00 +6°C° 0.8 mm 2 mps 683 mmHg 97%
    18:00 +6°C° 0.8 mm 2 mps 684 mmHg 97%
    19:00 +5°C° 0.8 mm 2 mps 684 mmHg 97%
    20:00 +5°C° 0.4 mm 2 mps 684 mmHg 97%
    21:00 +5°C° 0.4 mm 2 mps 684 mmHg 97%
    22:00 +4°C° 0.4 mm 2 mps 684 mmHg 97%
    23:00 +4°C° 0 mm 2 mps 684 mmHg 97%

    Tomorrow, 22 February, Wednesday

    Time Temperature Precipitation Wind Pressure Humidity
    00:00 +3°C° 0 mm 2 mps 684 mmHg 97%
    01:00 +2°C° 0 mm 2 mps 683 mmHg 97%
    02:00 +3°C° 0.1 mm 1 mps 683 mmHg 97%
    03:00 +2°C° 0.1 mm 1 mps 683 mmHg 96%
    04:00 +2°C° 0.1 mm 1 mps 682 mmHg 96%
    05:00 +2°C° 0.1 mm 1 mps 682 mmHg 96%
    06:00 +2°C° 0.1 mm 1 mps 682 mmHg 96%
    07:00 +1°C° 0.1 mm 1 mps 681 mmHg 95%
    08:00 +3°C° 0 mm 1 mps 682 mmHg 95%
    09:00 +6°C° 0 mm 1 mps 682 mmHg 94%
    10:00 +8°C° 0 mm 1 mps 683 mmHg 94%
    11:00 +9°C° 0 mm 1 mps 683 mmHg 94%
    12:00 +9°C° 0 mm 1 mps 683 mmHg 94%
    13:00 +9°C° 0 mm 2 mps 682 mmHg 93%
    14:00 +10°C° 0 mm 1 mps 682 mmHg 94%
    15:00 +9°C° 0 mm 1 mps 682 mmHg 95%
    16:00 +9°C° 0 mm 1 mps 682 mmHg 95%
    17:00 +7°C° 0 mm 1 mps 682 mmHg 96%
    18:00 +5°C° 0 mm 1 mps 681 mmHg 96%
    19:00 +3°C° 0 mm 1 mps 681 mmHg 96%
    20:00 +1°C° 0 mm 2 mps 681 mmHg 95%
    21:00 +1°C° 0 mm 2 mps 681 mmHg 94%
    22:00 +1°C° 0 mm 2 mps 682 mmHg 93%
    23:00 +1°C° 0 mm 2 mps 681 mmHg 92%

    Day after tomorrow, 23 February, Thursday

    Time Temperature Precipitation Wind Pressure Humidity
    00:00 +1°C° 0 mm 2 mps 681 mmHg 91%
    01:00 +2°C° 0 mm 2 mps 681 mmHg 90%
    02:00 +1°C° 0 mm 2 mps 681 mmHg 89%
    03:00 +1°C° 0 mm 2 mps 681 mmHg 87%
    04:00 +1°C° 0 mm 2 mps 680 mmHg 86%
    05:00 +1°C° 0 mm 2 mps 680 mmHg 85%
    06:00 +1°C° 0 mm 2 mps 680 mmHg 84%
    07:00 +1°C° 0 mm 2 mps 680 mmHg 82%
    08:00 +3°C° 0 mm 2 mps 680 mmHg 83%
    09:00 +5°C° 0 mm 2 mps 680 mmHg 84%
    10:00 +7°C° 0 mm 2 mps 680 mmHg 85%
    11:00 +8°C° 0 mm 2 mps 680 mmHg 85%
    12:00 +9°C° 0 mm 2 mps 679 mmHg 84%
    13:00 +10°C° 0 mm 2 mps 679 mmHg 84%
    14:00 +9°C° 0 mm 2 mps 678 mmHg 87%
    15:00 +9°C° 0 mm 2 mps 678 mmHg 89%
    16:00 +8°C° 0 mm 2 mps 677 mmHg 92%
    17:00 +7°C° 0 mm 2 mps 677 mmHg 93%
    18:00 +6°C° 0 mm 2 mps 677 mmHg 94%
    19:00 +5°C° 0 mm 2 mps 677 mmHg 95%
    20:00 +4°C° 0 mm 2 mps 677 mmHg 95%
    21:00 +4°C° 0 mm 2 mps 677 mmHg 95%
    22:00 +4°C° 0 mm 2 mps 677 mmHg 95%
    23:00 +4°C° 0 mm 2 mps 676 mmHg 95%

    24 February, Friday

    Time Temperature Precipitation Wind Pressure Humidity
    00:00 +3°C° 0 mm 2 mps 676 mmHg 94%
    01:00 +3°C° 0 mm 2 mps 676 mmHg 94%
    02:00 +3°C° 0.1 mm 2 mps 675 mmHg 94%
    03:00 +3°C° 0.1 mm 2 mps 675 mmHg 94%
    04:00 +3°C° 0.1 mm 2 mps 675 mmHg 94%
    05:00 +3°C° 1 mm 2 mps 675 mmHg 95%
    06:00 +3°C° 1 mm 2 mps 675 mmHg 96%
    07:00 +4°C° 1 mm 1 mps 675 mmHg 97%
    08:00 +3°C° 0.8 mm 2 mps 676 mmHg 96%
    09:00 +3°C° 0.8 mm 2 mps 676 mmHg 96%
    10:00 +3°C° 0.8 mm 2 mps 676 mmHg 95%
    11:00 +3°C° 0.3 mm 2 mps 676 mmHg 93%
    12:00 +2°C° 0.3 mm 3 mps 676 mmHg 91%
    13:00 +2°C° 0.3 mm 3 mps 676 mmHg 89%
    14:00 +2°C° 0.1 mm 3 mps 676 mmHg 89%
    15:00 +3°C° 0.1 mm 2 mps 676 mmHg 89%
    16:00 +3°C° 0.1 mm 2 mps 675 mmHg 89%
    17:00 +2°C° 1.3 mm 2 mps 676 mmHg 91%
    18:00 +1°C° 1.3 mm 2 mps 677 mmHg 93%
    19:00 -1°C° 1.3 mm 2 mps 678 mmHg 95%
    20:00 -1°C° 1.3 mm 2 mps 678 mmHg 96%
    21:00 -1°C° 1.3 mm 2 mps 679 mmHg 96%
    22:00 -2°C° 1.3 mm 3 mps 680 mmHg 96%
    23:00 -2°C° 0.7 mm 2 mps 681 mmHg 96%

    25 February, Saturday

    Time Temperature Precipitation Wind Pressure Humidity
    00:00 -2°C° 0.7 mm 2 mps 681 mmHg 96%
    01:00 -3°C° 0.7 mm 2 mps 682 mmHg 96%
    02:00 -3°C° 0.3 mm 2 mps 682 mmHg 96%
    03:00 -3°C° 0.3 mm 2 mps 683 mmHg 96%
    04:00 -1°C° 0.3 mm 1 mps 684 mmHg 96%
    05:00 -3°C° 0.2 mm 2 mps 684 mmHg 96%
    06:00 -3°C° 0.2 mm 2 mps 684 mmHg 95%
    07:00 -3°C° 0.2 mm 2 mps 685 mmHg 95%
    08:00 -1°C° 0.1 mm 2 mps 685 mmHg 95%
    09:00 +2°C° 0.1 mm 2 mps 685 mmHg 94%
    10:00 +3°C° 0.1 mm 2 mps 685 mmHg 94%
    11:00 +4°C° 0.1 mm 2 mps 685 mmHg 94%
    12:00 +5°C° 0.1 mm 2 mps 685 mmHg 94%
    13:00 +6°C° 0.1 mm 2 mps 685 mmHg 95%
    14:00 +6°C° 0.3 mm 2 mps 684 mmHg 95%
    15:00 +6°C° 0.3 mm 2 mps 684 mmHg 96%
    16:00 +6°C° 0.3 mm 2 mps 684 mmHg 96%
    17:00 +5°C° 0.2 mm 2 mps 684 mmHg 96%
    18:00 +5°C° 0.2 mm 2 mps 684 mmHg 96%
    19:00 +4°C° 0.2 mm 2 mps 685 mmHg 96%
    20:00 +4°C° 0.7 mm 2 mps 685 mmHg 96%
    21:00 +4°C° 0.7 mm 2 mps 685 mmHg 96%
    22:00 +4°C° 0.7 mm 2 mps 685 mmHg 96%
    23:00 +5°C° 0.3 mm 2 mps 685 mmHg 96%

    26 February, Sunday

    Time Temperature Precipitation Wind Pressure Humidity
    00:00 +5°C° 0.3 mm 2 mps 685 mmHg 96%
    01:00 +5°C° 0.3 mm 2 mps 686 mmHg 96%
    02:00 +5°C° 0.1 mm 2 mps 685 mmHg 95%
    03:00 +5°C° 0.1 mm 2 mps 685 mmHg 95%
    04:00 +4°C° 0.1 mm 2 mps 685 mmHg 95%
    05:00 +4°C° 0 mm 2 mps 685 mmHg 95%
    06:00 +3°C° 0 mm 2 mps 685 mmHg 95%
    07:00 +2°C° 0 mm 2 mps 685 mmHg 95%
    08:00 +5°C° 0 mm 1 mps 686 mmHg 95%
    09:00 +7°C° 0 mm 1 mps 686 mmHg 96%
    10:00 +8°C° 0 mm 1 mps 687 mmHg 96%
    11:00 +9°C° 0 mm 1 mps 687 mmHg 95%
    12:00 +10°C° 0 mm 1 mps 686 mmHg 94%
    13:00 +10°C° 0 mm 1 mps 686 mmHg 93%
    14:00 +10°C° 0 mm 1 mps 686 mmHg 94%
    15:00 +10°C° 0 mm 1 mps 686 mmHg 95%
    16:00 +10°C° 0 mm 1 mps 686 mmHg 95%
    17:00 +8°C° 0 mm 1 mps 685 mmHg 95%
    18:00 +5°C° 0 mm 1 mps 685 mmHg 95%
    19:00 +3°C° 0 mm 1 mps 684 mmHg 95%
    20:00 +3°C° 0 mm 1 mps 684 mmHg 93%
    21:00 +4°C° 0 mm 1 mps 684 mmHg 90%
    22:00 +3°C° 0 mm 2 mps 684 mmHg 88%
    23:00 +3°C° 0 mm 2 mps 684 mmHg 87%
    Show more